Retour au catalogue

STARLINK-34957

ActifCommunicationsSSO
NORAD 65388·PAYLOAD·🇺🇸 United States

Lancé Aug 30, 2025 depuis Vandenberg Space Force Base

Loading…

Prochains Passages (prochaines 24 heures)

TLE

FraisSource: CelesTrak SupGP

Époque: Sep 15, 2026, 03:58 UTC

1 65388C 25191K   26258.16576389 -.00003783  00000+0 -11740-3 0  2582
2 65388  97.2843 124.3033 0001735  94.3492 247.4507 15.33446090    13

Suivez STARLINK-34957 en temps réel avec AllMySat

Download on the App Store